Location: Alexander
(41.3564°N, 81.5960°W)
Time: 08:24:15
(UTC+00:00)

Cosmos 2279 Rocket - Pass Details

Date: 24 January 2021
Orbit: 963 x 979 km, 82.9° (Epoch: 02 March)

Event Time Altitude Azimuth Distance (km) Brightness Sun altitude
Rises 12:06:01 0° 196° (SSW) 3,655 7.1 -7.5°
Reaches altitude 10° 12:08:33 10° 199° (SSW) 2,713 6.4 -7.1°
Maximum altitude 12:14:42 62° 280° (W) 1,090 4.0 -6.0°
Drops below altitude 10° 12:20:55 10° 1° (N) 2,738 6.2 -4.9°
Sets 12:23:30 0° 5° (N) 3,691 6.9 -4.5°
